User: anonymous   Login
Location: Oshawa
(43.9000°N, 78.8670°W)
Time: 21:50:10
(UTC-05:00)
Language:

Cosmos 1821 Rocket - Orbit

View from above orbital plane
View from above orbital plane
View from above satellite
View from above satellite

Ground track
Ground track

The orbit data is extracted from the following two-line orbital elements,

1 17526U 87017B   17050.81934860 +.00000049 +00000-0 +34892-4 0  9999
2 17526 082.9037 127.9488 0038880 285.6460 074.0408 13.76801647489949
Epoch (UTC): 19 February 2017 19:39:51
Eccentricity: 0.0038880
inclination: 82.9037°
perigee height: 946 km
apogee height: 1004 km
right ascension of ascending node: 127.9488°
argument of perigee: 285.6460°
revolutions per day: 13.76801647
mean anomaly at epoch: 74.0408°
orbit number at epoch: 48994

The dashed part of the orbit path shows where the satellite is in the earth's shadow,  

DLR